ANA648 RJFT-RJTT

Flight info

Callsign ANA648
Flight time 1h 27m
Altitude 33000
Route N0450F330 SPIDE Y23 ARTIC Y71 XAC
Aircraft A321/M-SDE2FGHIM1RWXY/L

Departure

Time 2026-04-18 10:22
Airport Kumamoto Airport (RJFT)

Arrival

Time 2026-04-18 11:50
Airport Tokyo Haneda International Airport (RJTT)
Time Latitude Longitude Altitude Speed Heading
2026-04-18 09:09 32.83526 130.85830 636 ft 0 kts 155°
2026-04-18 10:13 32.83545 130.85820 636 ft 4 kts 155°
2026-04-18 10:13 32.83570 130.85806 636 ft 4 kts 155°
2026-04-18 10:13 32.83594 130.85793 636 ft 4 kts 155°
2026-04-18 10:13 32.83618 130.85780 636 ft 3 kts 155°
2026-04-18 10:14 32.83639 130.85771 638 ft 4 kts 192°
2026-04-18 10:14 32.83658 130.85786 640 ft 4 kts 241°
2026-04-18 10:14 32.83662 130.85797 636 ft 0 kts 244°
2026-04-18 10:16 32.83660 130.85791 636 ft 4 kts 244°
2026-04-18 10:17 32.83633 130.85724 635 ft 14 kts 244°
2026-04-18 10:17 32.83589 130.85615 635 ft 14 kts 244°
2026-04-18 10:17 32.83548 130.85512 638 ft 13 kts 244°
2026-04-18 10:17 32.83506 130.85409 641 ft 14 kts 245°
2026-04-18 10:18 32.83465 130.85305 635 ft 15 kts 244°
2026-04-18 10:18 32.83416 130.85181 626 ft 19 kts 245°
2026-04-18 10:18 32.83345 130.85005 621 ft 27 kts 244°
2026-04-18 10:18 32.83264 130.84802 630 ft 22 kts 245°
2026-04-18 10:19 32.83197 130.84636 614 ft 23 kts 244°
2026-04-18 10:19 32.83143 130.84500 615 ft 14 kts 245°
2026-04-18 10:19 32.83111 130.84418 614 ft 12 kts 245°
2026-04-18 10:19 32.83074 130.84327 612 ft 14 kts 244°
2026-04-18 10:20 32.83033 130.84225 610 ft 14 kts 244°
2026-04-18 10:20 32.83040 130.84139 609 ft 10 kts 307°
2026-04-18 10:20 32.83059 130.84123 609 ft 0 kts 334°
2026-04-18 10:21 32.83061 130.84122 609 ft 2 kts 335°
2026-04-18 10:21 32.83112 130.84096 616 ft 14 kts 336°
2026-04-18 10:21 32.83181 130.84137 621 ft 15 kts 63°
2026-04-18 10:21 32.83287 130.84400 622 ft 68 kts 65°
2026-04-18 10:22 32.83584 130.85137 628 ft 127 kts 65°
2026-04-18 10:22 32.84030 130.86247 685 ft 166 kts 64°
2026-04-18 10:22 32.84538 130.87435 1357 ft 159 kts 57°
2026-04-18 10:22 32.85458 130.88122 1919 ft 163 kts
2026-04-18 10:23 32.86544 130.87839 2461 ft 167 kts 327°
2026-04-18 10:23 32.87311 130.86801 2931 ft 169 kts 304°
2026-04-18 10:23 32.87962 130.85630 3432 ft 170 kts 304°
2026-04-18 10:23 32.88618 130.84453 3879 ft 175 kts 305°
2026-04-18 10:24 32.89334 130.83177 4068 ft 196 kts 305°
2026-04-18 10:24 32.90124 130.81744 4227 ft 217 kts 300°
2026-04-18 10:24 32.90473 130.79928 4360 ft 240 kts 265°
2026-04-18 10:24 32.89929 130.77965 4576 ft 263 kts 242°
2026-04-18 10:25 32.89061 130.75971 5052 ft 277 kts 234°
2026-04-18 10:25 32.87639 130.74450 5747 ft 279 kts 203°
2026-04-18 10:25 32.85766 130.73983 6468 ft 278 kts 175°
2026-04-18 10:25 32.83826 130.74152 7217 ft 281 kts 173°
2026-04-18 10:26 32.81860 130.74350 7951 ft 286 kts 173°
2026-04-18 10:26 32.79857 130.74555 8647 ft 291 kts 173°
2026-04-18 10:26 32.77818 130.74760 9322 ft 296 kts 173°
2026-04-18 10:26 32.75774 130.74961 9988 ft 301 kts 174°
2026-04-18 10:27 32.73680 130.75159 10696 ft 303 kts 174°
2026-04-18 10:27 32.71537 130.75360 11126 ft 319 kts 174°
2026-04-18 10:27 32.69248 130.75575 11268 ft 341 kts 174°
2026-04-18 10:27 32.66868 130.76194 11457 ft 359 kts 157°
2026-04-18 10:28 32.64694 130.77679 11961 ft 365 kts 140°
2026-04-18 10:28 32.62974 130.79890 12573 ft 367 kts 122°
2026-04-18 10:28 32.61868 130.82626 13183 ft 371 kts 109°
2026-04-18 10:28 32.61014 130.85526 13800 ft 375 kts 108°
2026-04-18 10:29 32.60377 130.88538 14395 ft 379 kts 97°
2026-04-18 10:29 32.60261 130.91683 14952 ft 384 kts 86°
2026-04-18 10:29 32.60676 130.94826 15497 ft 389 kts 77°
2026-04-18 10:29 32.61270 130.97970 16049 ft 393 kts 77°
2026-04-18 10:30 32.61857 131.01157 16566 ft 397 kts 77°
2026-04-18 10:30 32.62510 131.04364 17048 ft 403 kts 72°
2026-04-18 10:30 32.63601 131.07444 17532 ft 407 kts 61°
2026-04-18 10:30 32.65068 131.10331 18010 ft 411 kts 57°
2026-04-18 10:31 32.66578 131.13234 18491 ft 415 kts 57°
2026-04-18 10:31 32.68101 131.16166 18938 ft 420 kts 58°
2026-04-18 10:31 32.69636 131.19130 19371 ft 424 kts 57°
2026-04-18 10:31 32.71187 131.22136 19820 ft 428 kts 58°
2026-04-18 10:32 32.72744 131.25169 20250 ft 433 kts 58°
2026-04-18 10:32 32.74316 131.28232 20642 ft 436 kts 58°
2026-04-18 10:32 32.75905 131.31327 21049 ft 441 kts 58°
2026-04-18 10:32 32.77510 131.34450 21471 ft 445 kts 57°
2026-04-18 10:33 32.79131 131.37602 21884 ft 449 kts 58°
2026-04-18 10:33 32.80763 131.40779 22278 ft 452 kts 58°
2026-04-18 10:33 32.82410 131.43991 22672 ft 456 kts 58°
2026-04-18 10:33 32.84046 131.47184 23014 ft 460 kts 58°
2026-04-18 10:34 32.85718 131.50451 23371 ft 463 kts 58°
2026-04-18 10:34 32.87394 131.53733 23699 ft 466 kts 58°
2026-04-18 10:34 32.89084 131.57048 24053 ft 470 kts 58°
2026-04-18 10:34 32.90782 131.60383 24402 ft 474 kts 58°
2026-04-18 10:35 32.92496 131.63748 24739 ft 477 kts 58°
2026-04-18 10:35 32.94222 131.67144 25062 ft 481 kts 58°
2026-04-18 10:35 32.95959 131.70564 25347 ft 486 kts 58°
2026-04-18 10:35 32.97713 131.74019 25671 ft 489 kts 58°
2026-04-18 10:36 32.99481 131.77493 25995 ft 492 kts 58°
2026-04-18 10:36 33.01262 131.80993 26308 ft 495 kts 58°
2026-04-18 10:36 33.03048 131.84511 26616 ft 498 kts 58°
2026-04-18 10:36 33.04844 131.88056 26909 ft 501 kts 58°
2026-04-18 10:37 33.06647 131.91623 27196 ft 504 kts 58°
2026-04-18 10:37 33.08460 131.95215 27450 ft 507 kts 58°
2026-04-18 10:37 33.10289 131.98847 27712 ft 510 kts 58°
2026-04-18 10:37 33.12096 132.02438 27962 ft 514 kts 58°
2026-04-18 10:38 33.13963 132.06145 28212 ft 517 kts 58°
2026-04-18 10:38 33.15801 132.09782 28449 ft 520 kts 58°
2026-04-18 10:38 33.17669 132.13483 28709 ft 522 kts 58°
2026-04-18 10:38 33.19546 132.17215 28967 ft 525 kts 58°
2026-04-18 10:39 33.21430 132.20971 29195 ft 528 kts 58°
2026-04-18 10:39 33.23318 132.24738 29449 ft 530 kts 58°
2026-04-18 10:39 33.25210 132.28518 29725 ft 531 kts 58°
2026-04-18 10:39 33.27104 132.32305 30055 ft 531 kts 58°
2026-04-18 10:40 33.28998 132.36097 30355 ft 531 kts 58°
2026-04-18 10:40 33.30894 132.39903 30649 ft 532 kts 58°
2026-04-18 10:40 33.32788 132.43709 30949 ft 533 kts 58°
2026-04-18 10:40 33.34689 132.47523 31261 ft 534 kts 57°
2026-04-18 10:41 33.36788 132.51179 31519 ft 534 kts 52°
2026-04-18 10:41 33.38967 132.54782 31758 ft 536 kts 51°
2026-04-18 10:41 33.41161 132.58402 32004 ft 537 kts 52°
2026-04-18 10:41 33.43361 132.62022 32341 ft 537 kts 52°
2026-04-18 10:42 33.44814 132.64422 32561 ft 537 kts 51°
2026-04-18 10:42 33.47005 132.68057 32815 ft 540 kts 51°
2026-04-18 10:42 33.49197 132.71711 32998 ft 541 kts 51°
2026-04-18 10:43 33.53578 132.79003 33019 ft 536 kts 51°
2026-04-18 10:43 33.57928 132.86257 33032 ft 535 kts 51°
2026-04-18 10:44 33.62253 132.93507 33033 ft 536 kts 54°
2026-04-18 10:44 33.65505 133.01521 33027 ft 541 kts 73°
2026-04-18 10:45 33.67602 133.10195 33027 ft 540 kts 74°
2026-04-18 10:45 33.69700 133.18874 33021 ft 541 kts 74°
2026-04-18 10:46 33.71795 133.27570 33033 ft 541 kts 74°
2026-04-18 10:46 33.73873 133.36260 33037 ft 541 kts 74°
2026-04-18 10:47 33.75943 133.44949 33027 ft 542 kts 74°
2026-04-18 10:47 33.78010 133.53631 33012 ft 541 kts 74°
2026-04-18 10:48 33.80080 133.62349 33037 ft 541 kts 74°
2026-04-18 10:48 33.82126 133.71063 33031 ft 540 kts 74°
2026-04-18 10:49 33.84172 133.79755 33018 ft 540 kts 74°
2026-04-18 10:49 33.86218 133.88459 32992 ft 540 kts 74°
2026-04-18 10:50 33.88248 133.97163 33001 ft 541 kts 74°
2026-04-18 10:50 33.90264 134.05895 33002 ft 541 kts 74°
2026-04-18 10:51 33.92291 134.14623 33016 ft 542 kts 75°
2026-04-18 10:51 33.94313 134.23309 33014 ft 542 kts 75°
2026-04-18 10:52 33.96331 134.32042 33005 ft 542 kts 74°
2026-04-18 10:52 33.98345 134.40809 33017 ft 544 kts 75°
2026-04-18 10:53 34.00355 134.49598 33032 ft 544 kts 75°
2026-04-18 10:53 34.02362 134.58399 33027 ft 543 kts 75°
2026-04-18 10:54 34.04350 134.67192 33030 ft 544 kts 75°
2026-04-18 10:54 34.06352 134.76019 33049 ft 547 kts 75°
2026-04-18 10:55 34.08354 134.84845 33039 ft 546 kts 75°
2026-04-18 10:55 34.10341 134.93691 33028 ft 545 kts 75°
2026-04-18 10:56 34.12311 135.02528 33026 ft 546 kts 75°
2026-04-18 10:56 34.14283 135.11374 33033 ft 546 kts 75°
2026-04-18 10:57 34.16242 135.20165 33027 ft 546 kts 75°
2026-04-18 10:57 34.18205 135.29024 33021 ft 546 kts 75°
2026-04-18 10:58 34.20166 135.37947 33020 ft 546 kts 75°
2026-04-18 10:58 34.22065 135.46596 33021 ft 546 kts 75°
2026-04-18 10:59 34.24007 135.55459 33013 ft 545 kts 75°
2026-04-18 10:59 34.25942 135.64338 33017 ft 546 kts 75°
2026-04-18 11:00 34.27874 135.73230 33022 ft 547 kts 75°
2026-04-18 11:00 34.29806 135.82142 33021 ft 546 kts 75°
2026-04-18 11:01 34.31705 135.90965 33015 ft 547 kts 75°
2026-04-18 11:01 34.33615 135.99874 33019 ft 547 kts 75°
2026-04-18 11:02 34.36479 136.13260 33021 ft 547 kts 75°
2026-04-18 11:02 34.38380 136.22181 33018 ft 547 kts 76°
2026-04-18 11:03 34.40272 136.31134 33032 ft 549 kts 75°
2026-04-18 11:03 34.42151 136.40086 33030 ft 548 kts 75°
2026-04-18 11:04 34.44020 136.48996 33029 ft 549 kts 76°
2026-04-18 11:04 34.45898 136.57957 33032 ft 548 kts 76°
2026-04-18 11:05 34.47762 136.66928 33025 ft 549 kts 76°
2026-04-18 11:05 34.49617 136.75908 33018 ft 549 kts 76°
2026-04-18 11:06 34.51480 136.84889 33020 ft 549 kts 76°
2026-04-18 11:06 34.53314 136.93871 33019 ft 548 kts 79°
2026-04-18 11:07 34.53924 137.03046 33015 ft 546 kts 92°
2026-04-18 11:07 34.53984 137.12268 33015 ft 547 kts 92°
2026-04-18 11:08 34.54056 137.21429 33014 ft 546 kts 92°
2026-04-18 11:08 34.54116 137.30643 33022 ft 546 kts 92°
2026-04-18 11:09 34.54168 137.39846 33026 ft 545 kts 92°
2026-04-18 11:09 34.54219 137.49046 33030 ft 545 kts 92°
2026-04-18 11:10 34.54253 137.58249 33047 ft 546 kts 92°
2026-04-18 11:10 34.54283 137.67470 33060 ft 546 kts 92°
2026-04-18 11:11 34.54314 137.76685 33065 ft 546 kts 92°
2026-04-18 11:11 34.54336 137.85889 33074 ft 546 kts 92°
2026-04-18 11:12 34.54341 137.95105 33078 ft 546 kts 93°
2026-04-18 11:12 34.54335 138.04304 33079 ft 545 kts 93°
2026-04-18 11:13 34.54316 138.13447 33081 ft 545 kts 93°
2026-04-18 11:13 34.54293 138.22656 33080 ft 545 kts 93°
2026-04-18 11:14 34.54299 138.31869 33080 ft 546 kts 89°
2026-04-18 11:14 34.55612 138.40946 32795 ft 547 kts 71°
2026-04-18 11:15 34.56990 138.45251 31952 ft 549 kts 60°
2026-04-18 11:15 34.58713 138.49366 31447 ft 543 kts 60°
2026-04-18 11:15 34.60423 138.53440 30771 ft 543 kts 60°
2026-04-18 11:15 34.62108 138.57475 30144 ft 541 kts 60°
2026-04-18 11:16 34.63799 138.61549 29463 ft 539 kts 60°
2026-04-18 11:16 34.65474 138.65608 28791 ft 537 kts 61°
2026-04-18 11:16 34.67144 138.69668 28097 ft 535 kts 61°
2026-04-18 11:16 34.68791 138.73697 27414 ft 531 kts 62°
2026-04-18 11:17 34.70196 138.77847 26739 ft 530 kts 71°
2026-04-18 11:17 34.71107 138.82163 26066 ft 526 kts 80°
2026-04-18 11:17 34.71516 138.86576 25398 ft 521 kts 89°
2026-04-18 11:17 34.71521 138.90940 24764 ft 514 kts 91°
2026-04-18 11:18 34.71497 138.95256 24124 ft 509 kts 92°
2026-04-18 11:18 34.71479 138.99538 23476 ft 504 kts 91°
2026-04-18 11:18 34.71461 139.03781 22859 ft 498 kts 91°
2026-04-18 11:18 34.71443 139.07960 22263 ft 492 kts 91°
2026-04-18 11:19 34.71425 139.12003 21699 ft 486 kts 91°
2026-04-18 11:19 34.71405 139.16168 21135 ft 479 kts 91°
2026-04-18 11:19 34.71383 139.20131 20622 ft 472 kts 91°
2026-04-18 11:19 34.71356 139.24093 20099 ft 464 kts 92°
2026-04-18 11:20 34.71328 139.27986 19613 ft 456 kts 92°
2026-04-18 11:20 34.71299 139.31816 19117 ft 449 kts 92°
2026-04-18 11:20 34.71274 139.35581 18638 ft 442 kts 91°
2026-04-18 11:20 34.71490 139.39279 18167 ft 436 kts 81°
2026-04-18 11:21 34.72210 139.42827 17690 ft 430 kts 71°
2026-04-18 11:21 34.73396 139.46124 17219 ft 422 kts 60°
2026-04-18 11:21 34.74826 139.49221 16738 ft 417 kts 60°
2026-04-18 11:21 34.76173 139.52147 16284 ft 412 kts 60°
2026-04-18 11:22 34.77557 139.55176 15791 ft 408 kts 60°
2026-04-18 11:22 34.78927 139.58182 15303 ft 404 kts 60°
2026-04-18 11:22 34.80266 139.61124 14806 ft 401 kts 60°
2026-04-18 11:22 34.81609 139.64075 14314 ft 397 kts 60°
2026-04-18 11:23 34.83138 139.66820 14058 ft 385 kts 48°
2026-04-18 11:23 34.85021 139.69037 13933 ft 369 kts 36°
2026-04-18 11:23 34.87138 139.70681 13800 ft 354 kts 24°
2026-04-18 11:23 34.89377 139.71761 13677 ft 339 kts 15°
2026-04-18 11:24 34.91576 139.72646 13549 ft 328 kts 15°
2026-04-18 11:24 34.93709 139.73510 13422 ft 317 kts 15°
2026-04-18 11:24 34.95767 139.74347 13296 ft 307 kts 15°
2026-04-18 11:24 34.97742 139.75225 13117 ft 301 kts 23°
2026-04-18 11:25 34.99491 139.76596 12897 ft 298 kts 39°
2026-04-18 11:25 35.00981 139.78353 12724 ft 297 kts 43°
2026-04-18 11:25 35.02450 139.80115 12568 ft 296 kts 43°
2026-04-18 11:25 35.03922 139.81865 12419 ft 295 kts 42°
2026-04-18 11:26 35.04898 139.83023 12321 ft 294 kts 42°
2026-04-18 11:26 35.06823 139.85311 12120 ft 293 kts 42°
2026-04-18 11:26 35.08281 139.87050 11969 ft 293 kts 42°
2026-04-18 11:26 35.09732 139.88782 11834 ft 292 kts 43°
2026-04-18 11:27 35.10693 139.89928 11725 ft 291 kts 42°
2026-04-18 11:27 35.12138 139.91650 11585 ft 290 kts 43°
2026-04-18 11:27 35.13578 139.93368 11440 ft 289 kts 43°
2026-04-18 11:27 35.15012 139.95082 11297 ft 288 kts 43°
2026-04-18 11:28 35.16439 139.96791 11154 ft 287 kts 43°
2026-04-18 11:28 35.17866 139.98500 10999 ft 286 kts 43°
2026-04-18 11:28 35.19285 140.00198 10865 ft 285 kts 43°
2026-04-18 11:28 35.20696 140.01892 10713 ft 284 kts 43°
2026-04-18 11:29 35.22107 140.03589 10568 ft 284 kts 43°
2026-04-18 11:29 35.23511 140.05277 10433 ft 284 kts 43°
2026-04-18 11:29 35.24903 140.06950 10276 ft 282 kts 43°
2026-04-18 11:29 35.26300 140.08627 10136 ft 281 kts 43°
2026-04-18 11:30 35.27698 140.10304 9991 ft 280 kts 43°
2026-04-18 11:30 35.29086 140.11969 9851 ft 279 kts 43°
2026-04-18 11:30 35.30475 140.13634 9706 ft 279 kts 43°
2026-04-18 11:30 35.31855 140.15292 9566 ft 277 kts 43°
2026-04-18 11:31 35.33078 140.16764 9439 ft 276 kts 43°
2026-04-18 11:31 35.34439 140.18397 9297 ft 275 kts 43°
2026-04-18 11:31 35.35803 140.20035 9154 ft 274 kts 40°
2026-04-18 11:31 35.37361 140.21356 9024 ft 271 kts 24°
2026-04-18 11:32 35.39123 140.22083 8922 ft 267 kts
2026-04-18 11:32 35.40970 140.22284 8857 ft 266 kts
2026-04-18 11:32 35.42822 140.22410 8784 ft 266 kts
2026-04-18 11:32 35.44672 140.22542 8703 ft 265 kts
2026-04-18 11:33 35.46514 140.22679 8626 ft 265 kts
2026-04-18 11:33 35.48357 140.22820 8545 ft 265 kts
2026-04-18 11:33 35.50192 140.22957 8468 ft 264 kts
2026-04-18 11:33 35.52026 140.23089 8393 ft 264 kts
2026-04-18 11:34 35.53855 140.23220 8315 ft 263 kts
2026-04-18 11:34 35.55680 140.23352 8237 ft 263 kts
2026-04-18 11:34 35.57479 140.23482 8162 ft 262 kts
2026-04-18 11:34 35.59301 140.23549 8083 ft 260 kts 353°
2026-04-18 11:35 35.61060 140.23100 8009 ft 258 kts 339°
2026-04-18 11:35 35.62750 140.22357 7929 ft 258 kts 339°
2026-04-18 11:35 35.64437 140.21622 7853 ft 257 kts 339°
2026-04-18 11:35 35.66123 140.20891 7779 ft 257 kts 339°
2026-04-18 11:36 35.67806 140.20163 7708 ft 256 kts 339°
2026-04-18 11:36 35.69380 140.19170 7627 ft 254 kts 321°
2026-04-18 11:36 35.70586 140.17616 7551 ft 252 kts 303°
2026-04-18 11:36 35.71333 140.15675 7477 ft 251 kts 289°
2026-04-18 11:37 35.71902 140.13643 7403 ft 251 kts 289°
2026-04-18 11:37 35.72463 140.11643 7330 ft 251 kts 289°
2026-04-18 11:37 35.73034 140.09609 7254 ft 250 kts 289°
2026-04-18 11:37 35.73604 140.07584 7181 ft 250 kts 289°
2026-04-18 11:38 35.74174 140.05566 7110 ft 250 kts 289°
2026-04-18 11:38 35.74747 140.03542 7034 ft 250 kts 289°
2026-04-18 11:38 35.75318 140.01524 6932 ft 250 kts 289°
2026-04-18 11:38 35.75889 139.99509 6786 ft 249 kts 289°
2026-04-18 11:39 35.76455 139.97505 6662 ft 247 kts 289°
2026-04-18 11:39 35.77015 139.95510 6522 ft 246 kts 289°
2026-04-18 11:39 35.77575 139.93515 6391 ft 246 kts 289°
2026-04-18 11:39 35.78131 139.91530 6257 ft 245 kts 289°
2026-04-18 11:40 35.78686 139.89553 6125 ft 245 kts 289°
2026-04-18 11:40 35.79243 139.87568 5994 ft 244 kts 289°
2026-04-18 11:40 35.79803 139.85563 5531 ft 251 kts 289°
2026-04-18 11:40 35.80357 139.83581 5250 ft 247 kts 289°
2026-04-18 11:41 35.80923 139.81562 4975 ft 243 kts 287°
2026-04-18 11:41 35.81275 139.79568 4835 ft 233 kts 279°
2026-04-18 11:41 35.81544 139.77649 4727 ft 229 kts 279°
2026-04-18 11:41 35.81817 139.75725 4619 ft 229 kts 279°
2026-04-18 11:42 35.82089 139.73796 4518 ft 229 kts 277°
2026-04-18 11:42 35.82144 139.71846 4325 ft 228 kts 268°
2026-04-18 11:42 35.82137 139.69894 4122 ft 227 kts 268°
2026-04-18 11:42 35.82132 139.67946 4003 ft 228 kts 268°
2026-04-18 11:43 35.82120 139.65997 3970 ft 228 kts 264°
2026-04-18 11:43 35.81607 139.64224 3965 ft 223 kts 226°
2026-04-18 11:43 35.80279 139.63306 3975 ft 223 kts 191°
2026-04-18 11:43 35.78730 139.63150 3977 ft 221 kts 178°
2026-04-18 11:44 35.77341 139.63721 3968 ft 208 kts 146°
2026-04-18 11:44 35.76148 139.64710 3968 ft 206 kts 150°
2026-04-18 11:44 35.74916 139.65602 3971 ft 205 kts 151°
2026-04-18 11:44 35.73682 139.66481 3875 ft 203 kts 151°
2026-04-18 11:45 35.72512 139.67317 3658 ft 192 kts 151°
2026-04-18 11:45 35.71372 139.68130 3407 ft 183 kts 151°
2026-04-18 11:45 35.70292 139.68900 3169 ft 175 kts 151°
2026-04-18 11:45 35.69260 139.69635 2934 ft 169 kts 152°
2026-04-18 11:46 35.68263 139.70345 2727 ft 163 kts 152°
2026-04-18 11:46 35.67297 139.71034 2506 ft 159 kts 152°
2026-04-18 11:46 35.66344 139.71713 2310 ft 155 kts 151°
2026-04-18 11:46 35.65440 139.72356 2116 ft 146 kts 151°
2026-04-18 11:47 35.64577 139.72972 1911 ft 141 kts 152°
2026-04-18 11:47 35.63748 139.73562 1727 ft 139 kts 152°
2026-04-18 11:47 35.62904 139.74162 1538 ft 138 kts 152°
2026-04-18 11:47 35.62072 139.74754 1358 ft 138 kts 152°
2026-04-18 11:48 35.61240 139.75346 1174 ft 138 kts 152°
2026-04-18 11:48 35.60409 139.75937 997 ft 138 kts 151°
2026-04-18 11:48 35.59580 139.76527 810 ft 138 kts 151°
2026-04-18 11:48 35.58752 139.77116 632 ft 137 kts 151°
2026-04-18 11:49 35.57933 139.77698 447 ft 138 kts 151°
2026-04-18 11:49 35.57094 139.78294 261 ft 138 kts 151°
2026-04-18 11:49 35.56275 139.78875 70 ft 137 kts 151°
2026-04-18 11:49 35.55500 139.79422 27 ft 109 kts 149°
2026-04-18 11:50 35.55007 139.79774 29 ft 56 kts 150°
2026-04-18 11:50 35.54760 139.79916 28 ft 33 kts 164°
2026-04-18 11:50 35.54595 139.79903 27 ft 14 kts 240°
2026-04-18 11:50 35.54602 139.79812 25 ft 9 kts 339°
2026-04-18 11:51 35.54654 139.79773 25 ft 8 kts 328°
2026-04-18 11:51 35.54703 139.79738 26 ft 8 kts 332°
2026-04-18 11:51 35.54750 139.79706 27 ft 7 kts 330°
2026-04-18 11:51 35.54785 139.79682 30 ft 4 kts 329°
2026-04-18 11:52 35.54805 139.79667 30 ft 5 kts 329°
2026-04-18 11:52 35.54886 139.79610 27 ft 21 kts 330°
2026-04-18 11:52 35.55027 139.79511 27 ft 23 kts 331°
2026-04-18 11:52 35.55164 139.79414 27 ft 23 kts 329°
2026-04-18 11:53 35.55300 139.79315 27 ft 22 kts 329°
2026-04-18 11:53 35.55433 139.79218 26 ft 23 kts 331°
2026-04-18 11:53 35.55570 139.79124 31 ft 22 kts 329°
2026-04-18 11:53 35.55705 139.79028 27 ft 22 kts 332°
2026-04-18 11:54 35.55838 139.78934 24 ft 23 kts 329°
2026-04-18 11:54 35.55973 139.78834 26 ft 22 kts 328°
2026-04-18 11:54 35.56083 139.78759 24 ft 12 kts 323°
2026-04-18 11:54 35.56084 139.78683 25 ft 10 kts 245°
2026-04-18 11:55 35.56038 139.78585 22 ft 15 kts 239°
2026-04-18 11:55 35.55984 139.78491 23 ft 13 kts 210°
2026-04-18 11:55 35.55910 139.78518 22 ft 12 kts 150°
2026-04-18 11:55 35.55832 139.78572 23 ft 17 kts 150°
2026-04-18 11:56 35.55722 139.78655 24 ft 18 kts 147°
2026-04-18 11:56 35.55709 139.78692 25 ft 3 kts 58°
2026-04-18 11:56 35.55726 139.78729 29 ft 9 kts 60°
2026-04-18 11:56 35.55743 139.78764 24 ft 0 kts 60°